Location: Home
(42.5358°N, 72.7383°W)
Time: 15:54:38
(UTC-05:00)

Vanguard 1 - Pass Details

Date: 09 December 2021
Orbit: 652 x 3830 km, 34.2° (Epoch: 19 January)

Event Time Altitude Azimuth Distance (km) Brightness Sun altitude
Rises 06:29:27 0° 281° (WNW) 7,732 - -7.3°
Exits shadow 06:32:28 - 276° (W) 7,227 13.9 -6.8°
Reaches altitude 10° 06:39:03 10° 262° (W) 6,173 13.6 -5.7°
Maximum altitude 06:46:32 14° 238° (WSW) 5,241 13.5 -4.5°
Drops below altitude 10° 06:52:47 10° 212° (SSW) 4,945 13.6 -3.5°
Sets 06:58:45 0° 188° (S) 5,265 14.1 -2.5°
